Location: Stara Lesna
(49.1528°N, 20.2911°E)
Time: 10:15:54
(UTC+02:00)

USA 267 - Pass Details

Date: 13 July 2020
Orbit: 1102 x 1106 km, 123.0° (Epoch: 02 August)

Event Time Altitude Azimuth Distance (km) Brightness Sun altitude
Exits shadow 01:29:44 28° 202° (SSW) 1,934 4.0 -18.3°
Maximum altitude 01:31:31 32° 230° (SW) 1,792 4.0 -18.3°
Drops below altitude 10° 01:37:15 10° 292° (WNW) 2,965 5.6 -18.1°
Sets 01:40:04 0° 302° (WNW) 3,927 6.4 -18.0°
